Regional Weather Roundup
Issued by NWS

Home | Current Version | Previous Version | Graphics & Text | Print | Product List | Glossary On
Versions: 1 2 3 4 5 6 7 8 9 10 11 12 13 14 15 16 17 18 19 20 21 22 23 24 25 26 27 28 29 30 31 32 33 34 35 36 37 38 39 40 41 42 43 44 45 46 47 48 49 50
000
ASUS43 KMPX 261510
RWRMN
WEATHER ROUNDUP FOR MINNESOTA
NATIONAL WEATHER SERVICE TWIN CITIES/CHANHASSEN MN
900 AM CST WED NOV 26 2014


NOTE: "FAIR" INDICATES FEW OR NO CLOUDS BELOW 12,000 FEET WITH NO
SIGNIFICANT WEATHER AND/OR OBSTRUCTIONS TO VISIBILITY. N/A MEANS
CURRENT SKY AND/OR WEATHER CONDITIONS ARE NOT AVAILABLE.

MNZ060>063-068>070-261600-
   Twin Cities Metro

CITY           SKY/WX    TMP DP  RH WIND       PRES   REMARKS
TWIN CITIES    LGT SNOW  23  20  88 NE8       30.14R VSB 3/4 WCI  14
ST PAUL        LGT SNOW  23  20  88 N6        30.16R VSB 3/4 WCI  16
CRYSTAL        LGT SNOW  24  19  81 NE6       30.13R WCI  17
BLAINE         LGT SNOW  25  19  80 NE6       30.14R WCI  18
LAKEVILLE      LGT SNOW  21  19  93 NE6       30.11R WCI  14
EDEN PRAIRIE   LGT SNOW  24  21  88 NE8       30.12R VSB 3/4 WCI  15
SOUTH ST PAUL  LGT SNOW  24  21  88 N6        30.14R VSB 1   WCI  17
LAKE ELMO      LGT SNOW  23  21  93 NE5       30.15R WCI  17
$$
MNZ001>005-007-008-013>017-022>024-027-028-261600-
   Northwest Minnesota

CITY           SKY/WX    TMP DP  RH WIND       PRES   REMARKS
BEMIDJI        LGT SNOW   7   2  82 N6        30.25R WCI  -3
HALLOCK        CLEAR     -8 -13  77 N9        30.43R WCI -25
ROSEAU         FAIR      -6 -11  77 NW9       30.37R WCI -22
WARROAD        CLEAR     -8 -13  77 NW8       30.34R WCI -23
THIEF RVR FALL CLOUDY     0  -8  71 N13       30.34R WCI -18
CROOKSTON      MOCLDY     1  -4  78 N17       30.39R WCI -19
FOSSTON        MOCLDY     1  -2  85 N12       30.29R WCI -15
DETROIT LAKES  LGT SNOW   9   5  85 N12G21    30.25R WCI  -6
MOORHEAD       CLOUDY     1   0  92 N22       30.36R FOG     WCI -21
PARK RAPIDS    FLURRIES  12   7  80 N10       30.21R WCI  -1
MAHNOMEN       CLOUDY     3  -1  83 N15       30.28R WCI -15
$$
MNZ006-009>011-018-025>026-261600-
   North Central Minnesota

CITY           SKY/WX    TMP DP  RH WIND       PRES   REMARKS
BAUDETTE       CLOUDY    -1  -6  79 N7        30.30R WCI -14
FLAG ISLAND    CLEAR     -8 -13  77 NW10      30.33R WCI -26
INTL FALLS     CLEAR      4  -1  80 N13       30.26R WCI -13
WASKISH        CLEAR      3   0  85 CALM      30.28R
BIG FORK       LGT SNOW  10   7  85 N6        30.22R WCI   1
LONGVILLE      LGT SNOW  12   9  85 N7        30.21R WCI   2
GRAND RAPIDS   CLOUDY    12   9  85 NW14      30.18R WCI  -3
CRANE LAKE     LGT SNOW  10   7  85 N5        30.23R WCI   2
ORR            LGT SNOW  10   7  85 NW6       30.17R WCI   1
COOK           LGT SNOW  12   9  85 N3        30.19R
WALKER         LGT SNOW  10   5  81 N7        30.22R WCI  -2
$$
MNZ012-019>021-037-261600-
   Northeast Minnesota

CITY           SKY/WX    TMP DP  RH WIND       PRES   REMARKS
DULUTH         FLURRIES  18  12  77 N10       30.13R WCI   6
ELY            FLURRIES  12  10  92 NW5       30.15R WCI   4
HIBBING        CLOUDY    15   9  76 N12       30.18R WCI   2
EVELETH        FLURRIES  16  10  79 N5        30.17R WCI   9
DULUTH HARBOR  FLURRIES  23  18  80 CALM      30.20R
TWO HARBORS    PTSUNNY   21  16  79 N3        30.13R
SILVER BAY     PTSUNNY   19  14  79 NW5       30.14R WCI  13
GRAND MARAIS     N/A     20  11  68 N9G16     30.17R WCI   9
G MARAIS ARPRT LGT SNOW  12   7  79 N7        30.09R WCI   2
$$
MNZ029>031-032-039>041-046>048-054>057-064-261600-
   West Central Minnesota

CITY           SKY/WX    TMP DP  RH WIND       PRES   REMARKS
FERGUS FALLS   CLOUDY    12   5  73 N12G18    30.29R WCI  -2
WHEATON        CLOUDY     7   3  85 NW18G26   30.30R WCI -12
MORRIS         PTSUNNY   12   9  85 NW20      30.21R FOG     WCI  -6
ALEXANDRIA     PTSUNNY   18  13  80 N13       30.18R WCI   5
ELBOW LAKE       N/A     14  10  85 N16G22    30.21R WCI  -2
WADENA         FLURRIES  14  10  85 N12       30.20R WCI   0
GLENWOOD       MOSUNNY   19  16  86 N15       30.17R WCI   5
APPLETON       PTSUNNY   16  12  86 N21       30.21R FOG     WCI  -2
BENSON         FLURRIES  19  18  93 N12       30.19R WCI   7
ORTONVILLE     LGT SNOW  10   7  85 N20G29    30.24R WCI  -8
MADISON        PTSUNNY   18  14  86 N24G30    30.22R FOG     WCI   0
WILLMAR        FAIR      21  18  86 N13G18    30.17R HAZE    WCI   9
$$
MNZ033>034-036-042>043-049>051-058-059-261600-
   Central Minnesota

CITY           SKY/WX    TMP DP  RH WIND       PRES   REMARKS
ST CLOUD       PTSUNNY   22  17  81 N7        30.16R WCI  13
SAUK CENTRE    CLOUDY    19  15  84 N14       30.17R WCI   5
PAYNESVILLE    CLOUDY    18  16  91 N8        30.16R WCI   7
AITKIN         PTSUNNY   19  14  79 N6        30.16R WCI  11
PINE RIVER     LGT SNOW  16  10  79 N10       30.22R WCI   3
BRAINERD       PTSUNNY   17  13  84 N9        30.18R WCI   6
STAPLES        CLOUDY    16  12  86 N12       30.19R WCI   3
LONG PRAIRIE   CLOUDY    19  14  79 N12       30.17R WCI   7
LITTLE FALLS   PTSUNNY   19  16  86 N5        30.18R WCI  13
LITCHFIELD     LGT SNOW  23  21  93 N9        30.15R WCI  13
BUFFALO        LGT SNOW  23  20  89 N8        30.16R VSB 3/4 WCI  13
MAPLE LAKE     LGT SNOW  23  21  93 N8        30.16R WCI  14
$$
MNZ037-044-045-052-053-261600-
   East Central Minnesota

CITY           SKY/WX    TMP DP  RH WIND       PRES   REMARKS
PRINCETON      LGT SNOW  23  19  86 N8        30.16R WCI  14
MORA           PTSUNNY   21  14  73 NE3       30.18R
CAMBRIDGE      LGT SNOW  25  16  68 N7        30.15R WCI  17
RUSH CITY      CLOUDY    22  18  83 N6        30.17R WCI  15
MOOSE LAKE     CLOUDY    21  16  79 N6        30.15R WCI  14
HINCKLEY       CLOUDY    21  18  86 CALM      30.16R
CLOQUET        PTSUNNY   19  16  86 N7        30.14R WCI  10
MCGREGOR       CLOUDY    19  18  93 NW10      30.17R WCI   8
$$
MNZ071>073-080-081-089-090-097-098-261600-
   Southwest Minnesota

CITY           SKY/WX    TMP DP  RH WIND       PRES   REMARKS
MONTEVIDEO     PTSUNNY   21  19  93 N16       30.19R FOG     WCI   7
GRANITE FALLS  LGT SNOW  22  19  90 NW17      30.18R WCI   7
CANBY          CLOUDY    17  14  89 N17G23    30.21R FOG     WCI   1
MARSHALL       CLOUDY    21  16  79 N22       30.14R WCI   5
REDWOOD FALLS  SNOW      24  21  88 N12       30.13R VSB 1/4 WCI  13
OLIVIA         LGT SNOW  23  21  93 N16       30.13R WCI  10
PIPESTONE      LGT SNOW  19  18  93 NE18G29   30.08R WCI   4
WINDOM         LGT SNOW  23  21  93 N18       30.06R WCI   9
WORTHINGTON    CLOUDY    21  19  93 N18G26    30.06R WCI   6
JACKSON        LGT SNOW  27  23  86 N15       30.03R WCI  15
TRACY          SNOW      23  21  93 N20       30.12R VSB 1/2 WCI   8
SLAYTON        LGT SNOW  21  20  96 N24       30.08R WCI   4
$$
MNZ065>067-074>077-082>085-091>093-261600-
   South Central Minnesota

CITY           SKY/WX    TMP DP  RH WIND       PRES   REMARKS
MANKATO        CLOUDY    23  19  86 NE14      30.08R VSB 1/4 WCI  11
NEW ULM        LGT SNOW  23  21  93 NE13      30.09R VSB 1   WCI  11
ST JAMES       LGT SNOW  25  23  93 N13       30.08R VSB 1   WCI  13
FAIRMONT       CLOUDY    25  21  86 N12       30.03R WCI  14
GLENCOE        LGT SNOW  24  22  94 N8        30.12R VSB 1   WCI  15
FARIBAULT      LGT SNOW  21  19  93 N9        30.08R WCI  11
OWATONNA       LGT SNOW  23  19  86 NE9       30.05R WCI  13
WASECA         LGT SNOW  21  18  86 NE13      30.07R VSB 1   WCI   9
ALBERT LEA     LGT SNOW  27  25  93 E8        30.01R VSB 1   WCI  18
$$
MNZ078>079-086>088-094>096-261600-
   Southeast Minnesota

CITY           SKY/WX    TMP DP  RH WIND       PRES   REMARKS
ROCHESTER      LGT SNOW  21  18  88 E13       30.05R VSB 3/4 WCI   9
RED WING       LGT SNOW  25  18  74 E5        30.12R WCI  19
STANTON        LGT SNOW  23  20  86 NE9       30.09R WCI  13
DODGE CENTER   LGT SNOW  23  21  93 E13       30.04R WCI  11
WINONA         PTSUNNY   23  19  86 SE7       30.13R WCI  15
AUSTIN         CLOUDY    25  21  86 E10       30.03R WCI  15
PRESTON        CLOUDY    21  17  86 E7        30.06R WCI  12
$$
ABBREVIATIONS USED IN REMARKS
   TC - TEMPERATURES IN CELSIUS
  WCI - WIND CHILL INDEX
   HX - HEAT INDEX
  VSB - VISIBILITY
$$


USA.gov is the U.S. government's official web portal to all federal, state and local government web resources and services.